Regional Weather Roundup
Issued by NWS

Home | Current Version | Previous Version | Text Only | Print | Product List | Glossary On
Versions: 1 2 3 4 5 6 7 8 9 10 11 12 13 14 15 16 17 18 19 20 21 22 23 24 25 26 27 28 29 30 31 32 33 34 35 36 37 38 39 40 41 42 43 44 45 46 47 48 49 50
000
ASUS44 KBMX 061110
RWRAL

ALABAMA REGIONAL WEATHER ROUNDUP
NATIONAL WEATHER SERVICE BIRMINGHAM AL
500 AM CST TUE DEC 06 2016

NOTE: "FAIR" INDICATES FEW OR NO CLOUDS BELOW 12,000 FEET
WITH NO SIGNIFICANT WEATHER AND/OR OBSTRUCTIONS TO VISIBILITY.

THE REMARK "TC" DENOTES TEMPERATURE IN DEGREES CELSIUS.

ALZ001>011-014-016>018-020-061200-
NORTH ALABAMA

CITY           SKY/WX    TMP DP  RH WIND       PRES   REMARKS
MUSCLE SHOALS  LGT RAIN  56  53  90 SE12      29.60F
HUNTSVILLE     RAIN      56  56 100 CALM      29.66R
DECATUR        LGT RAIN  54  54 100 E8        29.64S
HALEYVILLE     CLOUDY    54  54 100 VRB6      29.62F
GADSDEN        CLOUDY    55  55 100 NE6       29.64F
$$

ALZ012-013-022-023-030>036-040>044-061200-
WEST CENTRAL ALABAMA

CITY           SKY/WX    TMP DP  RH WIND       PRES   REMARKS
TUSCALOOSA     LGT RAIN  58  58 100 S7        29.62F
$$

ALZ015-024>027-033>036-040>044-061200-
CENTRAL ALABAMA

CITY           SKY/WX    TMP DP  RH WIND       PRES   REMARKS
BIRMINGHAM     CLOUDY    59  59 100 VRB3      29.64S
MONTGOMERY     CLOUDY    57  54  89 E5        29.67S
SHELBY CO ARPT CLOUDY    60  60 100 SE5       29.64S
MAXWELL AFB    CLOUDY    57  57 100 SE5       29.66R
GREENVILLE     FOG       62  59  90 S5        29.66S VSB 1/2
$$

ALZ019-021-028-029-037-038-045>048-061200-
EAST CENTRAL ALABAMA

CITY           SKY/WX    TMP DP  RH WIND       PRES   REMARKS
ANNISTON       TSTM      56  54  93 VRB5G21   29.66F FOG
ALEXANDER CITY LGT RAIN  60  59  96 SE3       29.66F
AUBURN         CLOUDY    56  56 100 VRB7      29.68F FOG
$$

ALZ051>064-061200-
SOUTHWEST ALABAMA

CITY           SKY/WX    TMP DP  RH WIND       PRES   REMARKS
MOBILE         PTCLDY    64  61  90 SW8       29.72R
BROOKLEY FIELD PTCLDY    66  63  90 SW9G20    29.73R
EVERGREEN      CLOUDY    64  62  93 S6        29.67S
$$

ALZ049-050-065>069-061200-
SOUTHEAST ALABAMA

CITY           SKY/WX    TMP DP  RH WIND       PRES   REMARKS
DOTHAN         CLOUDY    71  71 100 SW14      29.72F
OZARK          CLOUDY    70  70 100 SW9       29.68F
TROY           CLOUDY    60  60 100 SE3       29.68S
EUFAULA        CLOUDY    59  58  96 CALM      29.67S
$$



USA.gov is the U.S. government's official web portal to all federal, state and local government web resources and services.